www.pogodaiklimat.ru

Погода и климат >> Архив погоды >> Великобритания >> База Chivenor


ПОГОДА на Базе Chivenor

  • Прогноз погоды на Базе Chivenor
  • Монитор погоды на Базе Chivenor

АРХИВ ПОГОДЫ на Базе Chivenor

Время (UTC), дата Ветер
(напр.,м/с)
 
Видим.   Явления Облачность Т
(С)
Тd
(С)
f
(%)
Тe
(С)
Тes
(С)
Комфортность P
(гПа)
Po
(гПа)
Тmin
(С)
Tmax
(С)
R
(мм)
R24
(мм)
S
(см)
13 18.06 В 3 35 км слаб. ливневой дождь н/о +16.3 +12.4 78 +16 +16 1013.1 1012.4
14 18.06 0 35 км слаб. морось с дождем н/о +17.1 +12.8 76
15 18.06 штиль 0 21 км слаб. ливневой дождь н/о +16.3 +12.5 78 +16 +16 1012.5 1011.8
16 18.06 штиль 0 19 км в посл. час дождь н/о +16.2 +12.6 79 +16 +16 1012.2 1011.5
17 18.06 штиль 0 28 км н/о +16.4 +12.6 78 +16 +16 1011.8 1011.1
18 18.06 штиль 0 25 км в посл. час дождь н/о +16.0 +12.5 80 +16 +16 1011.7 1011.0 +17.4 0.2
19 18.06 штиль 0 25 км слаб. ливневой дождь н/о +15.8 +13.0 83 +16 +16 1011.4 1010.7
20 18.06 штиль 0 10 км дождь н/о +15.2 +13.1 87 +15 +15 1011.4 1010.7
21 18.06 СВ 1 10 км слаб. дождь н/о +14.9 +13.3 90 +15 +15 1011.1 1010.4
22 18.06 ЮЗ 1 11 км слаб. ливневой дождь н/о +14.6 +13.4 93 +16 +16 1010.8 1010.1
23 18.06 З 1 4400 м слаб. ливневой дождь н/о +14.1 +13.2 94 +14 +14 1010.4 1009.7
00 19.06 З 1 23 км в посл. час дождь н/о +14.0 +13.2 95 +15 +15 1010.0 1009.3 1
01 19.06 С 2 13 км н/о +13.9 +12.8 93 +14 +14 1009.4 1008.7
02 19.06 С 2 7000 м в посл. час дождь н/о +13.7 +12.4 92 +13 +13 1009.0 1008.3
03 19.06 С 2 15 км н/о +13.7 +12.1 90 +13 +13 1009.0 1008.2
04 19.06 СВ 1 19 км н/о +13.5 +11.8 89 +14 +14 1009.0 1008.2
05 19.06 СЗ 1 12 км н/о +13.4 +12.0 91 +13 +13 1008.9 1008.1
06 19.06 СЗ 2 20 км н/о +13.4 +12.1 92 +13 +13 1008.8 1008.1 +13.3 1
07 19.06 СЗ 3 30 км н/о +13.8 +12.4 91 +13 +13 1009.0 1008.3
08 19.06 С 3 50 км н/о +13.7 +11.7 88 +12 +12 1009.3 1008.6
09 19.06 СЗ 4 12 км н/о +13.8 +12.0 89 +12 +12 1009.3 1008.6
10 19.06 СЗ 4 35 км н/о +14.0 +11.5 85 +12 +12 1009.6 1008.9
11 19.06 СЗ 4 45 км н/о +14.4 +11.5 83 +13 +13 1009.8 1009.1
12 19.06 З 4 30 км н/о +15.0 +11.1 77 +14 +14 1010.1 1009.4
13 19.06 З 5 22 км н/о +16.9 +9.5 62 +16 +16 1010.2 1009.5
14 19.06 З 5 29 км н/о +16.7 +11.9 73 +16 +16 1010.2 1009.5
15 19.06 З 6 26 км н/о +16.9 +12.6 76 +16 +16 1010.2 1009.5
16 19.06 З 5 35 км н/о +16.6 +12.0 74 +16 +16 1010.3 1009.6
17 19.06 З 7 35 км н/о +16.0 +11.9 77 +15 +15 1010.4 1009.7
18 19.06 З 6 40 км н/о +15.7 +11.3 75 +14 +14 1010.9 1010.1 +17.7
19 19.06 З 5 45 км н/о +14.9 +11.4 80 +14 +14 1011.3 1010.6
20 19.06 З 5 45 км н/о +13.9 +10.4 79 +12 +12 1011.5 1010.8
21 19.06 З 5 40 км н/о +12.9 +10.5 85 +11 +11 1012.0 1011.3
22 19.06 З 4 30 км н/о +13.0 +10.8 86 +11 +11 1012.1 1011.4
23 19.06 З 4 40 км н/о +13.2 +10.8 85 +12 +12 1012.2 1011.5
00 20.06 З 4 35 км н/о +12.7 +10.5 86 +11 +11 1012.2 1011.5
01 20.06 З 5 30 км н/о +12.6 +10.2 85 +10 +10 1012.2 1011.5
02 20.06 З 4 35 км н/о +12.7 +10.4 86 +11 +11 1012.2 1011.5
03 20.06 З 4 26 км н/о +12.5 +10.2 86 +10 +10 1012.0 1011.2
04 20.06 З 5 35 км н/о +13.2 +10.4 83 +11 +11 1012.1 1011.4
05 20.06 З 3 25 км в посл. час дождь н/о +12.0 +11.0 94 +10 +10 1012.5 1011.8
06 20.06 З 5 18 км н/о +13.1 +11.0 87 +11 +11 1012.6 1011.9 +12.0 1
07 20.06 З 6 29 км н/о +13.6 +11.2 85 +11 +11 1013.0 1012.3
08 20.06 З 6 40 км в посл. час дождь н/о +14.0 +10.8 81 +12 +12 1013.5 1012.7
09 20.06 З 7 45 км н/о +14.7 +10.4 75 +13 +13 1013.7 1013.0
10 20.06 З 6 35 км н/о +16.1 +10.3 68 +15 +15 1013.9 1013.2
11 20.06 З 6 28 км н/о +15.9 +10.7 71 +15 +15 1014.4 1013.7
12 20.06 З 7 35 км н/о +16.7 +10.4 66 +16 +16 1014.5 1013.8 0.2
13 20.06 З 7 28 км н/о +15.6 +10.1 70 +14 +14 1014.7 1014.0
14 20.06 З 6 45 км н/о +15.8 +9.9 68 +14 +14 1014.8 1014.1
15 20.06 З 7 30 км н/о +16.4 +9.8 65 +15 +15 1015.1 1014.4
16 20.06 З 7 45 км н/о +15.5 +10.1 70 +14 +14 1015.4 1014.7
17 20.06 З 6 50 км н/о +15.5 +10.7 73 +14 +14 1015.6 1014.9
18 20.06 З 6 50 км н/о +15.3 +9.9 70 +14 +14 1015.8 1015.1 +17.5 0.2
19 20.06 З 6 45 км н/о +14.9 +9.6 71 +13 +13 1015.9 1015.2
20 20.06 З 5 50 км в посл. час дождь н/о +13.8 +10.4 80 +12 +12 1016.1 1015.3
21 20.06 З 5 45 км н/о +12.9 +8.9 77 +11 +11 1016.5 1015.8
22 20.06 З 4 50 км н/о +12.4 +8.9 79 +10 +10 1016.9 1016.1
23 20.06 З 4 50 км н/о +12.0 +8.6 80 +10 +10 1017.2 1016.5
00 21.06 ЮЗ 3 40 км н/о +12.2 +9.2 82 +11 +11 1017.4 1016.6 0.0
01 21.06 В 1 40 км н/о +11.7 +9.0 83 +12 +12 1017.6 1016.9
02 21.06 В 2 40 км н/о +11.5 +9.0 85 +10 +10 1017.7 1017.0
03 21.06 В 3 45 км н/о +11.2 +9.0 86 +10 +10 1017.9 1017.2
04 21.06 В 3 35 км н/о +10.8 +9.1 89 +9 +9 1018.1 1017.4
05 21.06 В 2 50 км н/о +10.8 +8.8 87 +10 +10 1018.3 1017.6
06 21.06 В 2 30 км н/о +12.5 +10.2 86 +12 +12 1018.7 1018.0 +10.5 0.0
07 21.06 Ю 1 24 км н/о +14.4 +10.8 79 +15 +15 1019.2 1018.5
08 21.06 З 4 20 км н/о +14.8 +9.9 72 +14 +14 1019.7 1019.0
09 21.06 СЗ 4 30 км н/о +14.8 +10.2 74 +14 +14 1020.2 1019.4
10 21.06 СЗ 4 21 км н/о +16.0 +7.8 58 +15 +15 1020.3 1019.6
11 21.06 З 4 35 км н/о +16.3 +7.3 55 +16 +16 1020.6 1019.9
12 21.06 СЗ 5 27 км н/о +16.4 +7.3 55 +16 +16 1021.0 1020.3
13 21.06 СЗ 5 30 км н/о +16.4 +6.6 52 +16 +16 1021.3 1020.6
14 21.06 СЗ 5 28 км н/о +16.2 +8.1 59 +15 +15 1021.7 1021.0
15 21.06 СЗ 5 40 км н/о +16.5 +8.5 59 +16 +16 1021.8 1021.0
16 21.06 З 5 35 км н/о +15.7 +8.2 61 +15 +15 1021.8 1021.1
17 21.06 З 5 45 км н/о +15.8 +8.5 62 +15 +15 1021.9 1021.2
18 21.06 СЗ 5 45 км н/о +15.3 +8.9 66 +14 +14 1022.0 1021.3 +17.0
19 21.06 СЗ 4 35 км н/о +14.7 +9.1 69 +14 +14 1022.3 1021.6
20 21.06 СЗ 2 45 км н/о +13.8 +8.6 71 +13 +13 1022.5 1021.7
21 21.06 СЗ 2 50 км н/о +12.5 +8.4 76 +12 +12 1022.5 1021.8
22 21.06 С 1 50 км н/о +11.4 +8.0 80 +12 +12 1022.5 1021.8
23 21.06 В 2 35 км н/о +10.2 +8.4 89 +9 +9 1022.5 1021.7
00 22.06 В 3 50 км н/о +9.3 +7.7 90 +7 +7 1022.3 1021.6
01 22.06 В 3 35 км н/о +9.0 +7.6 91 +6 +6 1022.3 1021.6
02 22.06 В 3 30 км н/о +7.7 +6.4 91 +5 +5 1021.9 1021.2
03 22.06 В 4 45 км н/о +7.6 +6.6 93 +4 +4 1021.5 1020.7
04 22.06 В 4 35 км н/о +7.0 +5.9 93 +4 +4 1021.4 1020.6
05 22.06 В 4 45 км н/о +6.5 +5.5 93 +3 +3 1021.2 1020.5
06 22.06 В 3 40 км н/о +8.6 +5.8 83 +6 +6 1021.3 1020.6 +6.5
07 22.06 В 3 35 км н/о +11.0 +7.0 76 +9 +9 1021.3 1020.5
08 22.06 ЮВ 5 35 км н/о +14.9 +7.7 62 +14 +14 1020.8 1020.1
09 22.06 ЮВ 5 35 км н/о +17.3 +7.5 53 +17 +17 1020.7 1020.0
10 22.06 ЮВ 4 40 км н/о +18.9 +7.5 47 +19 +19 1020.2 1019.5
11 22.06 ЮВ 5 35 км н/о +20.0 +7.6 45 +21 +21 комфорт 1020.0 1019.2
12 22.06 ЮВ 5 27 км н/о +20.9 +9.9 49 +23 +23 комфорт 1019.5 1018.8
13 22.06 ЮВ 6 5000 м дым н/о +21.1 +8.9 46 +22 +22 комфорт 1019.0 1018.3
14 22.06 ЮВ 7 40 км н/о +21.7 +8.8 44 +23 +23 комфорт 1018.6 1017.9
15 22.06 ЮВ 7 29 км н/о +21.6 +9.0 44 +23 +23 комфорт 1018.3 1017.6
16 22.06 ЮВ 6 26 км н/о +21.3 +8.2 43 +22 +22 комфорт 1017.8 1017.1
17 22.06 ЮВ 7 40 км н/о +20.0 +8.9 49 +21 +21 комфорт 1017.7 1017.0
18 22.06 ЮВ 8 30 км н/о +19.4 +9.7 53 +20 +20 1017.7 1017.0 +22.4
19 22.06 ЮВ 7 45 км н/о +17.6 +8.8 56 +17 +17 1017.6 1016.9
20 22.06 ЮВ 8 50 км н/о +16.3 +8.2 59 +15 +15 1017.7 1017.0
21 22.06 В 6 50 км н/о +15.3 +8.0 62 +14 +14 1017.7 1017.0
22 22.06 В 7 50 км н/о +14.9 +7.9 63 +13 +13 1017.4 1016.7
23 22.06 В 6 50 км н/о +14.8 +7.9 63 +13 +13 1017.3 1016.6
00 23.06 В 6 50 км н/о +14.7 +7.7 63 +13 +13 1017.4 1016.7
01 23.06 В 6 50 км н/о +14.8 +7.1 60 +13 +13 1017.2 1016.5
02 23.06 В 7 50 км н/о +14.7 +6.9 59 +13 +13 1016.5 1015.8
03 23.06 В 7 50 км н/о +14.3 +6.8 61 +12 +12 1015.9 1015.2
04 23.06 В 6 50 км н/о +14.3 +7.2 62 +12 +12 1015.7 1014.9
05 23.06 В 7 35 км н/о +14.7 +9.2 70 +13 +13 1015.2 1014.5
06 23.06 В 6 35 км н/о +15.5 +10.4 72 +14 +14 1014.9 1014.2 +14.1
07 23.06 В 8 29 км н/о +16.1 +11.1 72 +15 +15 1015.0 1014.3
08 23.06 В 5 35 км в посл. час дождь н/о +16.4 +11.5 73 +15 +15 1015.1 1014.4
09 23.06 В 7 50 км н/о +17.5 +11.9 70 +17 +17 1015.1 1014.4
10 23.06 ЮВ 8 29 км н/о +19.0 +12.9 68 +19 +19 1014.6 1013.8
11 23.06 ЮВ 8
{13}
25 км н/о +19.7 +13.5 67 +21 +21 комфорт 1013.9 1013.2
12 23.06 ЮВ 7 28 км н/о +19.5 +13.3 67 +20 +20 1013.9 1013.1 0.0
13 23.06 ЮВ 6 13 км ливневой дождь н/о +17.5 +15.0 85 +17 +17 1014.0 1013.3
14 23.06 В 3 13 км слаб. дождь н/о +17.6 +15.4 87 +18 +18 1013.4 1012.7
15 23.06 ЮВ 1 12 км в посл. час дождь н/о +17.8 +16.1 90 +19 +19 1013.5 1012.7
16 23.06 В 3 11 км слаб. дождь н/о +17.8 +16.0 89 +18 +18 1012.8 1012.1
17 23.06 В 2 10 км в посл. час дождь н/о +17.9 +16.2 90 +19 +19 1012.5 1011.8
18 23.06 ЮВ 3 7000 м дым н/о +17.9 +16.2 90 +18 +18 1012.5 1011.8 +20.0 2
19 23.06 В 1 8000 м дым н/о +18.0 +16.1 89 +19 +19 1012.8 1012.1
20 23.06 СВ 1 10 км н/о +18.3 +16.0 86 +20 +20 1013.0 1012.3
21 23.06 В 3 9000 м дым н/о +17.3 +15.0 86 +17 +17 1012.9 1012.2
22 23.06 В 3 6000 м дым н/о +16.3 +14.9 91 +16 +16 1013.1 1012.4
23 23.06 В 4 8000 м дым н/о +16.6 +14.6 88 +16 +16 1013.0 1012.3
00 24.06 В 5 6000 м дым н/о +16.3 +14.7 90 +15 +15 1013.2 1012.4
01 24.06 В 3 6000 м дым н/о +16.0 +14.4 90 +15 +15 1013.0 1012.3
02 24.06 В 3 4600 м дым н/о +15.8 +14.3 91 +15 +15 1013.1 1012.4
03 24.06 ЮЗ 2 2600 м дым н/о +15.0 +13.9 93 +15 +15 1013.4 1012.7
04 24.06 З 1 2800 м дым н/о +14.3 +13.2 93 +15 +15 1013.7 1013.0
05 24.06 СЗ 3 2700 м дымка н/о +14.7 +14.0 96 +14 +14 1014.1 1013.4
06 24.06 З 4 600 м туман н/о +14.3 +13.8 97 +13 +13 1014.7 1013.9 +14.1
07 24.06 З 3 1600 м в посл. час туман н/о +14.3 +13.8 97 +13 +13 1015.5 1014.8
08 24.06 З 3 3400 м дымка н/о +14.5 +14.0 97 +14 +14 1016.0 1015.3
09 24.06 З 2 15 км дымка н/о +14.9 +14.2 96 +14 +14 1016.5 1015.7
10 24.06 З 2 3800 м дымка н/о +15.2 +14.3 94 +15 +15 1017.0 1016.3
11 24.06 З 3 20 км н/о +16.5 +14.7 89 +16 +16 1017.2 1016.5
12 24.06 З 3 35 км н/о +17.5 +13.4 77 +17 +17 1017.3 1016.6
13 24.06 ЮЗ 4 50 км н/о +18.3 +13.4 73 +19 +19 1017.7 1017.0
14 24.06 СЗ 4 20 км н/о +18.1 +12.3 69 +18 +18 1017.7 1017.0
15 24.06 З 4 24 км н/о +18.8 +13.0 69 +20 +20 1017.9 1017.2
16 24.06 СЗ 4 29 км н/о +19.1 +13.0 68 +20 +20 1018.0 1017.3
17 24.06 СЗ 4 25 км н/о +17.6 +12.5 72 +17 +17 1018.0 1017.3
18 24.06 СЗ 3 35 км н/о +16.8 +12.9 78 +17 +17 1018.2 1017.5 +19.8
19 24.06 СЗ 3 35 км н/о +16.1 +13.1 82 +16 +16 1018.6 1017.8
20 24.06 З 3 18 км н/о +15.6 +13.7 88 +15 +15 1018.9 1018.2
21 24.06 З 1 25 км н/о +15.1 +13.1 88 +16 +16 1019.7 1019.0
22 24.06 СЗ 3 15 км н/о +14.3 +12.9 91 +13 +13 1019.5 1018.8
23 24.06 СЗ 2 13 км н/о +14.2 +12.7 91 +14 +14 1019.1 1018.4
00 25.06 З 1 13 км н/о +14.4 +13.3 93 +15 +15 1019.1 1018.3
01 25.06 З 2 8000 м дым н/о +14.0 +13.0 94 +13 +13 1018.8 1018.1
02 25.06 З 2 7000 м дымка н/о +13.8 +12.9 94 +13 +13 1017.8 1017.1
03 25.06 СЗ 2 8000 м дымка н/о +13.9 +13.1 95 +13 +13 1017.8 1017.1
05 25.06 З 2 5000 м слаб. дождь н/о +14.2 +13.5 96 +14 +14 1018.2 1017.4
06 25.06 СЗ 2 7000 м слаб. дождь н/о +14.7 +14.1 96 +15 +15 1018.3 1017.5 +13.6 0.0
07 25.06 З 2 8000 м в посл. час дождь н/о +15.4 +14.4 94 +15 +15 1018.1 1017.4
08 25.06 З 3 24 км н/о +16.9 +14.9 88 +17 +17 1018.3 1017.6
09 25.06 ЮЗ 5 15 км н/о +16.9 +14.4 85 +16 +16 1018.8 1018.1
10 25.06 З 4 17 км н/о +17.4 +14.8 85 +17 +17 1019.1 1018.4
11 25.06 З 3 23 км н/о +17.9 +14.5 80 +18 +18 1019.5 1018.8

 

Местоположение метеостанции База Chivenor (Великобритания): широта 51.08 долгота -4.15 высота над уровнем моря 6 м.

В архиве по умолчанию представлена погода на Базе Chivenor за последнюю неделю. Архивные данные за месяц целиком и за предыдущие месяцы, начиная с января 2011 года, Вы можете получить, выбрав интересующий диапазон дат из раскрывающегося списка и нажав кнопку "Ввод!".


*Определитесь, кто Вы:
робот инопланетянин человек

Внимание! Время в таблицах - всемирное. Для получения местного времени необходимо прибавить поправку, которая равна 0 ч.

Смотрите также архив погоды в соседних городах и на ближайших метеорологических станциях:

Погода в Лискомбе (Великобритания) (38 км)
Погода в Мамблсе (Великобритания) (56 км)
Погода в Сейнт Атан (Великобритания) (61 км)
Погода в Аэропорту Эксетер (Великобритания) (64 км)
Погода в Аэропорту Эксетер 2 (Великобритания) (64 км)
Погода в Данкесуэлле (Великобритания) (69 км)
Погода в Пембри Сэндс (Великобритания) (73 км)
Погода в Кардинхеме (Великобритания) (74 км)
Погода в Плимуте (Великобритания) (81 км)
Погода в Милфорд-Хейвен (Великобритания) (93 км)

Пояснения к столбцам:

Ветер - указаны скорость ветра в м/с - средняя за 10 мин, порывы в срок и между сроками (в фигурных скобках) и направление, откуда дует ветер: С - северный, СВ - северо-восточный, В - восточный, ЮВ - юго-восточный, Ю - южный, ЮЗ - юго-западный, З - западный, СЗ - северо-западный.
Видимость - горизонтальная дальность видимости в метрах или километрах. При видимости от 1 до 10 км при отсутствии осадков обычно наблюдается дымка, при ухудшении видимости до 1 км и менее - туман. В сухую погоду видимость может ухудшаться дымом, пылью или мглою.
Явления - указаны атмосферные явления, наблюдавшиеся в срок или в последний час перед сроком; фигурными скобками обозначены явления, наблюдавшиеся между сроками (за 1-3 часа до срока); квадратными скобками обозначены град или гололедные отложения с указанием их диаметра в мм.
Облачность - указаны через наклонную черту общая и нижняя облачность в баллах и высота нижней границы облаков в метрах; квадратными скобками обозначены формы облаков: Ci - перистые, Cs - перисто-слоистые, Cc - перисто-кучевые, Ac - высококучевые, As - высокослоистые, Sc - слоисто-кучевые, Ns - слоисто-дождевые, Cu - кучевые, Cb - кучево-дождевые. Подробнее классификацию облаков см. в Атласе облаков (PDF).
T - Температура воздуха - температура, измеренная на высоте 2 м над землей.
Td - Температура точки росы - температура, при понижении до которой содержащийся в воздухе водяной пар достигнет насыщения.
f - Относительная влажность воздуха - влажноcть воздуха, измеренная на высоте 2 м над землей.
Te - Эффективная температура - температура, которую ощущает одетый по сезону человек в тени. Характеристика душности погоды. При расчете учитывается влияние влажности воздуха и скорости ветра на теплоощущения человека.
Tes - Эффективная температура на солнце - температура, которую ощущает человек, с поправкой на солнечный нагрев. Характеристика знойности погоды. Зависит от высоты солнца над горизонтом, облачности и скорости ветра. Ночью, в пасмурную погоду, а также при ветре 12 м/с и более поправка равна нулю.
P - Атмосферное давление - приведенное к уровню моря атмосферное давление.
Po - Атмосферное давление - измеренное на уровне метеостанции атмосферное давление.
Tmin - Минимальная температура - минимум температуры воздуха на высоте 2 м над землей.
Tmax - Максимальная температура - максимум температуры воздуха на высоте 2 м над землей.
R - Количество осадков - Количество выпавших осадков за период времени, мм. При наведении курсора мыши на число - период времени, за который выпало указанное количество осадков.
R24 - Количество осадков - Количество выпавших осадков за 24 часа, мм.
S - Снежный покров - Высота снежного покрова, см. При наведении курсора мыши на число - состояние снежного покрова и степень покрытия местности в баллах.